Location: Unspecified
(50.7693°N, 0.0000°E)
Time: 06:40:30
(UTC+00:00)

A-11 Canister half - Pass Details

Date: 20 June 2019
Orbit: 1526 x 1683 km, 47.3° (Epoch: 17 July)

Event Time Altitude Azimuth Distance (km) Brightness Sun altitude
Rises 05:31:22 0° 230° (SW) 4,729 11.0 13.4°
Reaches altitude 10° 05:34:32 10° 226° (SW) 3,730 10.5 13.9°
Maximum altitude 05:43:30 52° 154° (SSE) 1,842 9.7 15.2°
Drops below altitude 10° 05:52:22 10° 81° (E) 3,697 13.4 16.6°
Sets 05:55:30 0° 77° (ENE) 4,685 13.3 17.0°
